Weather reports worldwide

Advertisment
Messina, Italy (16420): temperature & dewpoint: 15.01.2018 04:00:00 - 21.01.2018 04:00:00 (CET)Messina, Italy (16420): wind speed: 15.01.2018 04:00:00 - 21.01.2018 04:00:00 (CET)Messina, Italy (16420): wind direction: 15.01.2018 04:00:00 - 21.01.2018 04:00:00 (CET)Messina, Italy (16420): reduced air pressure: 15.01.2018 04:00:00 - 21.01.2018 04:00:00 (CET)Messina, Italy (16420): visibility: 15.01.2018 04:00:00 - 21.01.2018 04:00:00 (CET)Messina, Italy (16420): sunshine duration: 15.01.2018 04:00:00 - 21.01.2018 04:00:00 (CET)
Date & Time tt [°C] td [°C] ff [km/h] ff [kn] dd ppp [hPa] vv [km] sd [min]
21.01.2018 04:00:00 - - - - - - - -
21.01.2018 03:00:00 13,0 8,9 11 6 WNW 1013,5 14 -
21.01.2018 02:00:00 12,8 8,7 16 9 NW 1013,5 14 -
21.01.2018 01:00:00 13,0 8,5 16 9 NW 1013,6 14 -
21.01.2018 00:00:00 13,4 7,8 21 11 NW 1014,1 14 -
20.01.2018 23:00:00 13,4 7,8 26 14 WNW 1014,3 14 -
20.01.2018 22:00:00 13,2 7,7 22 12 WNW 1014,4 14 -
20.01.2018 21:00:00 13,2 8,3 18 10 WNW 1014,2 14 -
20.01.2018 20:00:00 13,0 7,7 22 12 NW 1014,1 14 -
20.01.2018 19:00:00 13,0 7,0 21 11 WNW 1014,0 14 -
20.01.2018 18:00:00 14,0 7,5 15 8 N 1013,7 14 -
20.01.2018 17:00:00 14,2 8,6 16 9 N 1013,5 18 0
20.01.2018 16:00:00 14,8 8,3 16 9 NNE 1013,5 18 0
20.01.2018 15:00:00 15,0 7,8 15 8 N 1013,5 18 12
20.01.2018 14:00:00 15,4 7,2 18 10 NE 1013,5 18 48
20.01.2018 13:00:00 15,2 7,5 16 9 NNW 1014,1 18 48
20.01.2018 12:00:00 15,0 7,3 22 12 NNW 1014,5 18 30
20.01.2018 11:00:00 14,2 8,2 15 8 NNW 1014,5 18 0
20.01.2018 10:00:00 13,2 8,9 13 7 NE 1014,5 18 0
20.01.2018 09:00:00 12,6 8,3 11 6 NNE 1014,5 18 0
20.01.2018 08:00:00 12,6 7,5 11 6 NNE 1014,4 18 0
20.01.2018 07:00:00 12,6 6,2 21 11 NW 1013,6 16 -
20.01.2018 06:00:00 12,2 7,1 18 10 NW 1013,6 12 -
20.01.2018 05:00:00 12,4 7,7 22 12 NW 1013,9 12 -
20.01.2018 04:00:00 12,4 7,7 16 9 NW 1014,2 12 -
20.01.2018 03:00:00 12,4 7,5 13 7 NNW 1014,5 12 -
20.01.2018 02:00:00 12,6 7,3 21 11 NW 1014,6 12 -
20.01.2018 01:00:00 12,2 7,3 13 7 NNW 1015,3 12 -
20.01.2018 00:00:00 12,4 7,5 15 8 NW 1015,3 12 -
19.01.2018 23:00:00 12,4 7,9 18 10 NW 1015,3 12 -
19.01.2018 22:00:00 12,0 8,3 16 9 NW 1015,5 14 -
19.01.2018 21:00:00 12,4 7,9 15 8 NW 1015,6 16 -
19.01.2018 20:00:00 12,6 7,9 16 9 NNW 1015,6 20 -
19.01.2018 19:00:00 13,0 7,2 18 10 NNW 1015,4 20 -
19.01.2018 18:00:00 13,0 7,0 16 9 NNW 1015,5 20 -
19.01.2018 17:00:00 13,8 5,9 16 9 N 1015,5 20 18
19.01.2018 16:00:00 15,4 4,5 18 10 NNE 1015,5 25 60
19.01.2018 15:00:00 16,4 5,1 18 10 N 1015,5 25 60
19.01.2018 14:00:00 16,6 7,0 21 11 NE 1015,8 25 60
19.01.2018 13:00:00 16,4 8,4 29 16 NE 1016,5 25 60
19.01.2018 12:00:00 15,8 8,3 26 14 ENE 1017,3 20 60
19.01.2018 11:00:00 15,0 8,2 22 12 NNE 1018,0 20 60
19.01.2018 10:00:00 14,0 8,2 22 12 NNW 1018,4 20 60
19.01.2018 09:00:00 13,2 8,7 16 9 N 1018,6 20 60
19.01.2018 08:00:00 11,2 7,7 15 8 NW 1018,6 18 0
19.01.2018 07:00:00 11,2 7,7 16 9 NW 1018,6 18 -
19.01.2018 06:00:00 11,0 7,5 16 9 NW 1019,1 15 -
19.01.2018 05:00:00 10,6 7,1 16 9 NW 1019,0 15 -
19.01.2018 04:00:00 11,0 7,1 13 7 NNW 1019,8 15 -
19.01.2018 03:00:00 11,0 6,0 13 7 NNW 1020,2 15 -
19.01.2018 02:00:00 11,2 4,9 13 7 N 1020,5 15 -
19.01.2018 01:00:00 11,2 4,0 11 6 N 1020,7 15 -
19.01.2018 00:00:00 11,0 3,3 9 5 NNE 1021,1 15 -
18.01.2018 23:00:00 10,2 3,2 11 6 N 1021,2 16 -
18.01.2018 22:00:00 11,0 2,8 13 7 NW 1021,4 16 -
18.01.2018 21:00:00 10,2 2,8 9 5 NW 1021,6 16 -
18.01.2018 20:00:00 11,4 2,4 11 6 WNW 1021,6 16 -
18.01.2018 19:00:00 12,0 1,1 9 5 WNW 1021,6 16 -
18.01.2018 18:00:00 13,0 0,7 15 8 NW 1021,6 16 0
18.01.2018 17:00:00 14,0 -0,4 9 5 WNW 1021,5 20 60
18.01.2018 16:00:00 15,0 -1,1 18 10 N 1021,5 20 60
18.01.2018 15:00:00 15,4 -1,6 16 9 NNE 1021,5 20 60
18.01.2018 14:00:00 15,0 -3,3 21 11 NNE 1021,5 20 60
18.01.2018 13:00:00 15,0 -2,4 22 12 NW 1022,0 20 60
18.01.2018 12:00:00 14,8 -1,7 21 11 N 1022,0 20 60
18.01.2018 11:00:00 13,8 -2,6 26 14 N 1021,5 20 60
18.01.2018 10:00:00 13,4 -2,5 26 14 NNE 1020,5 20 60
18.01.2018 09:00:00 13,0 -2,5 24 13 SSW 1019,6 20 60
18.01.2018 08:00:00 12,4 0,2 28 15 N 1018,8 20 18
18.01.2018 07:00:00 12,8 -2,3 31 17 N 1017,8 18 -
18.01.2018 06:00:00 13,0 -0,6 28 15 N 1017,6 12 -
18.01.2018 05:00:00 13,4 -0,6 31 17 N 1016,7 12 -
18.01.2018 04:00:00 13,8 0,1 28 15 N 1015,7 12 -
18.01.2018 03:00:00 13,8 0,1 28 15 N 1015,3 12 -
18.01.2018 02:00:00 14,0 1,3 29 16 N 1014,6 12 -
18.01.2018 01:00:00 14,0 4,3 31 17 N 1013,5 12 -
18.01.2018 00:00:00 14,0 4,0 29 16 NNW 1013,5 12 -
17.01.2018 23:00:00 14,0 4,6 31 17 NNW 1012,5 12 -
17.01.2018 22:00:00 14,0 6,6 31 17 NW 1011,4 12 -
17.01.2018 21:00:00 14,6 4,0 31 17 NNW 1010,6 12 -
17.01.2018 20:00:00 15,0 9,4 34 18 NW 1009,5 15 -
17.01.2018 19:00:00 15,2 10,8 39 21 NW 1009,1 15 -
17.01.2018 18:00:00 15,4 10,8 41 22 NW 1008,4 15 -
17.01.2018 17:00:00 15,8 9,9 44 24 NW 1009,5 15 6
17.01.2018 16:00:00 15,8 9,7 37 20 WNW 1008,4 15 60
17.01.2018 15:00:00 16,0 9,4 41 22 NW 1008,8 15 60
17.01.2018 14:00:00 16,2 8,4 37 20 WNW 1009,6 15 60
17.01.2018 13:00:00 15,2 8,0 39 21 NW 1011,3 15 60
17.01.2018 12:00:00 16,0 7,7 31 17 NW 1012,2 15 60
17.01.2018 11:00:00 15,8 8,5 26 14 NW 1013,0 15 60
17.01.2018 10:00:00 15,0 8,9 28 15 NW 1013,2 15 60
17.01.2018 09:00:00 14,6 9,2 24 13 WNW 1013,5 15 36
17.01.2018 08:00:00 14,0 9,8 15 8 N 1013,7 12 0
17.01.2018 07:00:00 14,0 10,6 13 7 N 1014,4 12 -
17.01.2018 06:00:00 14,0 9,8 11 6 N 1014,5 12 -
17.01.2018 05:00:00 14,0 9,7 13 7 NNE 1015,4 12 -
17.01.2018 04:00:00 14,2 9,2 13 7 N 1015,8 12 -
17.01.2018 03:00:00 14,4 9,0 18 10 NW 1016,6 12 -
17.01.2018 02:00:00 14,2 8,2 18 10 NNW 1016,9 12 -
17.01.2018 01:00:00 14,0 8,0 16 9 N 1017,4 12 -
17.01.2018 00:00:00 14,0 8,0 15 8 NNW 1017,7 12 -
16.01.2018 23:00:00 14,2 9,8 16 9 NW 1018,4 12 -
16.01.2018 22:00:00 14,2 9,8 21 11 NW 1018,6 12 -
16.01.2018 21:00:00 14,2 9,8 18 10 NW 1018,6 12 -
16.01.2018 20:00:00 14,4 8,4 21 11 NW 1018,5 12 -
16.01.2018 19:00:00 14,8 9,6 24 13 NNW 1018,5 12 -
16.01.2018 18:00:00 14,6 10,0 22 12 NW 1018,5 12 -
16.01.2018 17:00:00 14,6 8,5 16 9 NW 1019,1 18 0
16.01.2018 16:00:00 14,8 9,0 22 12 NW 1019,4 15 48
16.01.2018 15:00:00 15,0 8,2 16 9 W 1019,8 18 60
16.01.2018 14:00:00 15,0 7,3 24 13 WNW 1020,4 18 60
16.01.2018 13:00:00 14,8 6,1 37 20 WNW 1021,0 18 54
16.01.2018 12:00:00 13,8 8,6 28 15 NW 1022,0 15 24
16.01.2018 11:00:00 14,4 6,2 29 16 WNW 1022,4 8 0
16.01.2018 10:00:00 14,2 6,8 18 10 NNW 1022,3 10 24
16.01.2018 09:00:00 14,4 5,2 16 9 N 1021,9 20 30
16.01.2018 08:00:00 13,2 4,9 16 9 W 1021,8 20 0
16.01.2018 07:00:00 13,2 5,1 21 11 WNW 1021,8 16 -
16.01.2018 06:00:00 13,0 5,4 22 12 NW 1022,3 16 -
16.01.2018 05:00:00 12,0 7,5 11 6 NW 1022,6 16 -
16.01.2018 04:00:00 12,2 7,9 11 6 N 1022,8 16 -
16.01.2018 03:00:00 13,0 7,7 13 7 N 1023,5 16 -
16.01.2018 02:00:00 12,0 6,3 13 7 N 1023,5 16 -
16.01.2018 01:00:00 13,0 6,6 13 7 N 1023,5 16 -
16.01.2018 00:00:00 12,0 6,3 15 8 NNW 1023,5 16 -
15.01.2018 23:00:00 11,2 7,1 9 5 NNE 1023,5 16 -
15.01.2018 22:00:00 11,6 6,9 11 6 NNW 1023,4 16 -
15.01.2018 21:00:00 11,8 6,9 13 7 W 1022,8 16 -
15.01.2018 20:00:00 12,2 7,1 15 8 N 1022,6 14 -
15.01.2018 19:00:00 12,2 7,9 15 8 NNE 1022,6 14 -
15.01.2018 18:00:00 13,0 7,7 15 8 NNW 1022,4 14 -
15.01.2018 17:00:00 13,8 6,7 13 7 N 1022,4 18 0
15.01.2018 16:00:00 14,2 4,8 16 9 N 1022,2 18 0
15.01.2018 15:00:00 14,4 6,0 11 6 SSW 1022,3 18 0
15.01.2018 14:00:00 14,8 6,1 13 7 SSW 1022,5 18 0
15.01.2018 13:00:00 14,0 5,4 16 9 SW 1022,9 18 0
15.01.2018 12:00:00 13,6 7,4 15 8 SSW 1023,5 18 0
15.01.2018 11:00:00 13,0 7,5 15 8 SSW 1023,5 18 0
15.01.2018 10:00:00 11,8 7,7 11 6 SW 1023,5 18 0
15.01.2018 09:00:00 11,2 7,7 15 8 WSW 1022,8 18 0
15.01.2018 08:00:00 10,2 7,1 16 9 W 1022,6 18 0
15.01.2018 07:00:00 10,0 7,4 15 8 W 1022,4 18 -
15.01.2018 06:00:00 10,0 7,4 18 10 WSW 1022,4 15 -
15.01.2018 05:00:00 10,6 8,0 16 9 WSW 1022,5 15 -
15.01.2018 04:00:00 10,0 7,4 18 10 WSW 1022,6 15 -

tt = temperature
td = dewpoint
ff = wind speed
dd = wind direction
ppp = reduced air pressure
vv = visibility
sd = sunshine duration

Next stations